User: anonymous   Login
Location: Newark
(35.8833°N, 14.5000°E)
Time: 21:22:23
(UTC+00:00)
Language:

A-11 Canister half - Orbit

View from above orbital plane
View from above orbital plane
View from above satellite
View from above satellite

Ground track
Ground track

The orbit data is extracted from the following two-line orbital elements,

1    53U 60009E   19318.58952709  .00000041  00000-0  12419-2 0  9994
2    53  47.2747 204.6700 0097251 162.5973 197.8184 12.17232277642270
Epoch (UTC): 14 November 2019 14:08:55
Eccentricity: 0.0097251
inclination: 47.2747°
perigee height: 1527 km
apogee height: 1682 km
right ascension of ascending node: 204.6700°
argument of perigee: 162.5973°
revolutions per day: 12.17232277
mean anomaly at epoch: 197.8184°
orbit number at epoch: 64227

The dashed part of the orbit path shows where the satellite is in the earth's shadow,  

DLR